Wind_Speed
43 43 44 44 43 43 43 43 42 42 43 45 46 47 48 48 48 47 47 47 47 47 47 46 45 44 43 42 41 40 38 37 36 36 34 33 32 31
44 45 44 44 44 44 44 44 44 45 45 46 47 48 48 48 47 47 47 47 47 47 46 45 44 42 42 41 40 39 37 36 36 35 34 32 31 30
44 44 44 44 43 43 44 44 45 46 47 47 47 47 47 47 47 47 47 47 47 46 45 44 43 42 41 40 38 38 37 36 35 34 33 32 31 30
44 44 44 44 44 44 45 45 46 46 47 47 47 48 48 48 48 47 47 46 46 45 44 43 43 41 40 39 38 37 36 35 34 33 32 31 30 30
44 44 45 46 45 46 46 46 46 47 47 47 48 48 48 47 47 47 46 46 45 44 43 42 41 40 40 38 37 36 36 34 33 32 32 31 30 30
46 46 46 46 46 46 46 46 47 47 46 46 46 46 46 46 46 45 45 45 44 43 41 41 40 40 39 37 36 35 34 33 32 31 31 30 30 30
45 46 45 45 45 46 45 46 46 46 46 46 45 45 45 45 44 44 43 43 42 41 40 39 39 38 37 36 35 34 33 33 32 31 31 30 30 30
45 45 45 45 45 45 46 45 45 45 45 45 44 44 44 44 43 42 42 41 40 40 39 39 38 37 36 35 34 33 33 32 32 32 31 31 30 31
45 45 45 45 45 45 45 44 44 44 44 43 42 42 42 41 41 41 40 39 39 39 38 37 37 36 35 34 33 33 33 33 32 31 31 31 31 31
44 44 44 44 43 43 43 43 43 42 42 41 41 41 40 40 39 39 39 39 38 38 37 36 36 35 34 34 33 33 32 32 32 31 31 31 31 31
42 43 42 42 42 42 42 42 42 41 40 40 40 40 39 39 38 38 38 38 37 37 37 36 35 34 34 33 33 33 32 32 32 32 31 31 31 31
42 42 41 40 40 40 40 41 41 40 40 40 40 39 38 38 38 37 37 37 36 36 36 35 34 34 33 33 33 32 32 32 32 31 31 31 30 30
40 40 40 39 40 40 40 40 41 40 40 40 39 39 38 38 37 37 36 36 36 35 35 34 34 33 33 33 33 32 32 32 32 32 32 31 31 32
39 39 39 40 40 40 40 40 40 40 39 39 38 38 38 37 37 36 36 36 35 34 34 33 33 32 32 32 32 32 32 32 33 33 32 33 33 33
39 39 39 39 39 39 39 39 38 38 38 38 38 38 37 37 36 36 36 35 34 34 33 33 32 32 32 32 32 32 33 33 33 33 33 33 33 33
39 39 39 39 38 39 38 38 38 38 38 37 37 37 36 36 36 35 35 35 34 34 34 33 33 33 33 33 33 33 34 34 34 34 34 34 34 34
38 38 38 38 38 37 37 37 37 37 37 37 37 36 36 36 35 35 35 35 35 35 34 34 34 34 34 34 35 35 35 35 35 34 34 34 34 34
37 38 38 38 38 37 37 37 37 37 37 37 37 36 36 36 35 35 35 35 35 35 35 35 35 35 35 35 35 36 36 35 35 35 35 34 35 35
37 37 37 37 37 37 37 37 37 37 37 37 36 36 36 36 36 35 35 35 35 35 35 35 35 35 35 36 36 37 36 36 35 35 35 35 35 36
36 36 35 35 36 36 36 36 36 36 36 36 36 36 36 35 35 35 35 35 35 35 35 35 36 36 36 36 36 37 37 36 36 35 35 36 37 38
35 35 35 35 35 35 35 36 36 36 36 36 36 36 35 35 35 35 35 35 35 36 36 36 37 37 37 37 37 37 38 38 37 37 37 37 38 38
35 35 35 35 35 35 35 35 36 35 35 35 35 36 36 36 35 35 35 35 36 36 37 37 37 38 38 38 38 38 38 38 38 38 39 39 39 38
34 34 34 34 34 35 35 35 35 35 35 35 35 35 35 35 35 35 35 36 36 37 37 38 38 38 38 38 38 38 38 38 39 39 40 40 39 40
Wind_Direction
264 265 266 268 269 269 270 273 275 277 279 281 284 285 286 287 288 289 289 290 290 290 291 292 292 292 292 291 290 289 288 288 287 286 285 283 281 279
263 266 266 268 269 269 271 273 276 279 281 282 283 285 286 286 287 288 289 290 290 290 291 291 291 291 291 290 290 289 287 286 286 284 283 281 279 277
263 265 266 267 267 269 271 274 277 279 280 282 283 283 284 285 286 288 288 289 289 290 290 290 290 290 290 290 288 287 286 285 285 282 281 279 276 274
263 264 266 268 269 271 273 275 277 279 280 281 282 282 283 284 286 287 287 288 288 288 289 289 289 289 289 287 286 285 285 285 284 282 280 278 276 274
266 267 268 269 271 273 273 275 278 279 280 281 281 282 283 284 285 285 286 287 287 287 288 288 288 288 288 286 286 285 284 284 283 281 278 276 274 273
267 269 270 270 272 273 274 276 277 278 279 281 281 282 283 284 285 285 286 286 286 286 287 287 287 287 286 285 285 285 283 282 281 279 277 276 274 272
268 269 270 270 271 273 275 276 276 278 279 280 281 282 283 284 284 285 285 286 286 286 286 286 286 286 285 284 284 283 283 282 280 278 277 276 274 271
266 266 268 270 271 273 274 275 277 278 278 279 280 282 283 284 284 284 285 285 285 285 286 286 285 285 285 284 283 282 281 281 280 278 276 275 273 272
266 267 268 269 270 272 273 275 276 276 277 279 281 282 283 283 284 284 284 284 284 284 285 285 284 284 284 283 282 281 280 280 279 277 276 275 274 272
265 267 268 269 270 272 273 274 275 276 277 278 280 281 281 282 282 283 283 284 283 283 283 283 283 283 283 281 281 280 280 280 279 278 277 276 275 273
264 266 267 268 269 271 272 273 274 275 276 277 279 280 281 282 282 282 282 282 282 282 282 283 283 283 282 281 280 280 280 280 279 279 278 277 276 274
263 264 266 267 267 269 271 273 273 274 275 277 278 278 279 280 281 281 281 281 281 281 282 282 282 282 281 280 279 279 280 279 279 278 277 276 275 273
263 264 265 266 267 269 271 273 274 274 275 276 277 277 278 279 279 280 280 279 280 280 281 281 281 281 281 280 279 279 279 279 279 278 277 276 275 274
262 264 265 267 268 270 271 273 273 274 275 276 276 276 277 278 278 278 279 279 279 280 280 281 280 280 281 281 280 280 280 280 279 278 278 277 276 275
263 264 265 267 268 270 271 272 272 274 275 275 276 276 276 277 277 277 278 278 279 279 279 279 279 280 280 281 281 281 281 281 280 279 278 277 275 274
263 263 265 266 267 269 270 271 272 273 274 275 275 276 276 277 277 276 277 277 278 278 279 279 279 279 280 280 281 281 281 282 282 281 279 276 275 274
262 263 265 265 267 269 269 270 271 273 274 275 275 275 276 276 276 276 276 276 277 277 278 278 279 279 279 280 281 282 282 282 282 281 279 276 275 274
262 263 265 266 267 267 268 270 271 273 274 274 274 274 275 275 275 275 276 276 277 277 277 278 279 279 280 281 282 282 282 282 281 281 279 276 275 275
262 263 265 266 267 268 269 270 271 272 273 273 273 273 274 274 274 275 276 276 277 277 277 278 279 280 281 281 282 282 282 282 281 280 279 277 275 275
262 264 265 267 268 269 269 270 270 272 272 273 273 273 274 274 274 275 275 276 276 277 278 279 279 280 281 282 282 281 281 281 281 280 278 278 277 276
263 265 266 267 268 268 269 270 270 271 271 272 272 273 274 274 274 275 275 276 276 277 278 279 280 280 281 282 281 281 281 281 281 280 279 279 278 277
264 265 266 267 268 268 269 270 270 271 271 271 272 273 274 274 274 274 275 276 277 278 279 280 281 281 281 281 281 281 282 282 281 281 280 280 279 278
264 265 266 266 268 268 269 270 271 271 271 272 273 273 273 274 274 274 275 276 277 279 280 281 282 281 281 282 282 282 282 282 282 282 282 281 280 279
Height
5745 5746 5746 5746 5746 5746 5746 5745 5745 5744 5743 5740 5737 5734 5731 5728 5725 5722 5719 5716 5713 5709 5706 5702 5699 5696 5693 5689 5687 5684 5681 5679 5677 5675 5673 5672 5671 5670
5733 5734 5735 5735 5735 5735 5735 5734 5733 5732 5731 5729 5726 5723 5720 5717 5713 5710 5707 5705 5701 5698 5695 5691 5688 5685 5682 5679 5677 5674 5672 5669 5668 5666 5664 5663 5662 5661
5722 5723 5723 5724 5724 5723 5723 5722 5721 5720 5718 5717 5714 5711 5708 5705 5702 5699 5696 5693 5690 5687 5684 5681 5678 5675 5672 5669 5666 5664 5662 5660 5658 5656 5655 5654 5653 5653
5710 5711 5711 5711 5711 5711 5711 5710 5709 5707 5706 5704 5702 5699 5696 5694 5691 5688 5685 5682 5679 5676 5672 5670 5667 5664 5661 5659 5656 5654 5652 5650 5648 5647 5646 5645 5645 5644
5697 5698 5699 5699 5699 5699 5699 5698 5697 5695 5693 5692 5690 5687 5684 5681 5679 5676 5673 5670 5667 5664 5662 5659 5656 5653 5651 5648 5646 5644 5642 5640 5639 5638 5637 5636 5636 5635
5685 5686 5687 5687 5687 5687 5686 5685 5684 5683 5681 5679 5677 5675 5672 5669 5667 5664 5661 5658 5656 5653 5651 5648 5645 5643 5641 5638 5636 5634 5633 5631 5630 5629 5628 5627 5627 5627
5672 5673 5674 5674 5674 5674 5674 5673 5672 5670 5669 5667 5665 5663 5660 5658 5655 5652 5650 5647 5645 5642 5640 5638 5635 5633 5631 5629 5627 5625 5623 5622 5621 5620 5619 5618 5618 5618
5659 5660 5661 5661 5662 5661 5661 5660 5659 5658 5656 5654 5652 5651 5649 5646 5643 5641 5639 5636 5634 5632 5630 5627 5625 5623 5621 5619 5617 5616 5614 5613 5612 5611 5610 5609 5609 5608
5646 5647 5648 5648 5649 5649 5648 5647 5646 5645 5644 5642 5641 5639 5637 5634 5632 5630 5628 5625 5623 5621 5619 5617 5615 5613 5611 5609 5608 5606 5605 5604 5603 5602 5601 5600 5600 5599
5633 5634 5635 5635 5636 5636 5635 5635 5634 5633 5632 5630 5629 5627 5625 5623 5621 5619 5617 5615 5613 5611 5609 5607 5605 5603 5601 5600 5598 5597 5596 5595 5593 5592 5591 5591 5590 5590
5620 5622 5622 5623 5623 5623 5623 5623 5622 5621 5620 5618 5617 5615 5613 5612 5610 5608 5606 5604 5603 5601 5599 5597 5595 5593 5592 5590 5589 5587 5586 5585 5584 5583 5582 5581 5581 5580
5608 5609 5610 5611 5611 5611 5611 5610 5610 5609 5608 5607 5605 5604 5602 5601 5599 5597 5595 5594 5592 5591 5589 5587 5585 5583 5582 5581 5579 5578 5577 5576 5574 5573 5573 5572 5571 5570
5596 5598 5598 5599 5599 5599 5599 5599 5598 5597 5596 5595 5594 5593 5591 5590 5588 5587 5585 5584 5582 5580 5579 5577 5575 5573 5572 5571 5570 5568 5567 5566 5565 5564 5563 5562 5561 5561
5585 5585 5586 5587 5587 5587 5587 5587 5586 5585 5584 5583 5582 5582 5580 5579 5578 5576 5575 5573 5572 5570 5569 5567 5565 5564 5563 5561 5560 5559 5558 5556 5555 5554 5553 5552 5551 5550
5573 5574 5575 5575 5576 5576 5576 5575 5574 5574 5573 5572 5571 5570 5569 5568 5567 5566 5564 5563 5561 5560 5559 5557 5556 5554 5553 5552 5551 5549 5548 5547 5545 5544 5542 5541 5540 5540
5562 5562 5563 5563 5564 5564 5564 5563 5563 5563 5562 5561 5560 5559 5558 5557 5556 5555 5554 5553 5551 5550 5548 5547 5546 5545 5543 5542 5541 5539 5537 5536 5535 5533 5532 5530 5529 5529
5550 5551 5551 5552 5552 5552 5552 5552 5552 5551 5551 5550 5549 5548 5547 5546 5545 5544 5543 5542 5541 5540 5538 5537 5535 5534 5533 5531 5530 5528 5527 5525 5524 5522 5521 5519 5518 5518
5539 5540 5540 5540 5541 5541 5541 5541 5540 5540 5539 5539 5538 5537 5536 5535 5534 5533 5532 5531 5530 5529 5528 5526 5525 5524 5522 5521 5519 5517 5516 5514 5513 5511 5510 5508 5507 5506
5527 5528 5529 5529 5530 5530 5530 5530 5529 5529 5528 5528 5527 5526 5525 5524 5523 5522 5521 5520 5519 5518 5517 5516 5514 5513 5511 5510 5508 5506 5504 5503 5501 5500 5498 5497 5496 5494
5516 5517 5518 5518 5518 5518 5518 5518 5518 5518 5517 5516 5516 5515 5514 5513 5512 5511 5510 5509 5508 5507 5506 5504 5503 5501 5500 5499 5497 5494 5492 5491 5490 5488 5487 5485 5484 5482
5505 5506 5506 5507 5507 5507 5507 5507 5507 5507 5506 5505 5505 5504 5503 5502 5501 5500 5499 5498 5497 5496 5494 5493 5491 5490 5488 5486 5485 5482 5480 5479 5478 5476 5475 5473 5472 5470
5495 5495 5496 5496 5496 5496 5496 5496 5496 5495 5495 5494 5493 5493 5492 5491 5490 5489 5488 5487 5486 5484 5483 5481 5479 5478 5476 5474 5472 5471 5468 5467 5465 5463 5462 5461 5459 5457
5484 5484 5485 5485 5485 5485 5485 5485 5484 5484 5483 5483 5482 5481 5481 5480 5479 5478 5477 5476 5474 5473 5471 5469 5467 5465 5464 5462 5460 5458 5456 5454 5452 5451 5449 5447 5446 5444